TimeEDT,TemperatureF,Dew PointF,Humidity,Sea Level PressureIn,VisibilityMPH,Wind Direction,Wind SpeedMPH,Gust SpeedMPH,PrecipitationIn,Events,Conditions,WindDirDegrees,DateUTC
12:54 AM,60.1,55.0,83,29.92,10.0,SSW,4.6,-,N/A,,Clear,210,2012-10-06 04:54:00
1:54 AM,60.1,55.9,86,29.91,10.0,SSW,3.5,-,N/A,,Clear,200,2012-10-06 05:54:00
2:54 AM,60.1,55.9,86,29.88,10.0,South,3.5,-,N/A,,Clear,180,2012-10-06 06:54:00
3:54 AM,60.1,55.0,83,29.87,10.0,SSW,5.8,-,N/A,,Clear,210,2012-10-06 07:54:00
4:54 AM,59.0,55.0,87,29.86,9.0,SSW,3.5,-,N/A,,Clear,200,2012-10-06 08:54:00
5:54 AM,57.9,55.0,90,29.86,7.0,SSW,4.6,-,N/A,,Clear,210,2012-10-06 09:54:00
6:54 AM,59.0,55.0,87,29.84,5.0,SSW,4.6,-,N/A,,Clear,210,2012-10-06 10:54:00
7:54 AM,61.0,57.0,87,29.85,10.0,SW,6.9,-,N/A,,Clear,220,2012-10-06 11:54:00
8:54 AM,66.0,57.9,75,29.84,9.0,SW,6.9,-,N/A,,Clear,220,2012-10-06 12:54:00
9:54 AM,71.1,59.0,66,29.83,10.0,SW,9.2,-,N/A,,Clear,220,2012-10-06 13:54:00
10:54 AM,72.0,57.9,61,29.81,10.0,SSW,10.4,19.6,N/A,,Clear,200,2012-10-06 14:54:00
11:54 AM,77.0,57.9,52,29.78,10.0,SW,9.2,25.3,N/A,,Clear,220,2012-10-06 15:54:00
12:54 PM,77.0,57.0,50,29.75,10.0,SSW,12.7,27.6,N/A,,Clear,200,2012-10-06 16:54:00
1:54 PM,78.1,57.9,50,29.72,10.0,SSW,12.7,19.6,N/A,,Clear,200,2012-10-06 17:54:00
2:54 PM,78.1,55.9,46,29.70,10.0,SSW,17.3,26.5,N/A,,Partly Cloudy,210,2012-10-06 18:54:00
3:54 PM,77.0,57.0,50,29.69,10.0,SSW,13.8,19.6,N/A,,Partly Cloudy,210,2012-10-06 19:54:00
4:54 PM,75.9,57.0,52,29.70,10.0,SW,13.8,21.9,N/A,,Overcast,220,2012-10-06 20:54:00
5:31 PM,68.0,60.8,78,29.74,6.0,West,16.1,27.6,0.01,Rain,Rain,280,2012-10-06 21:31:00
5:54 PM,64.9,55.9,73,29.76,10.0,WNW,11.5,19.6,0.01,,Overcast,290,2012-10-06 21:54:00
6:06 PM,64.4,55.4,73,29.77,10.0,West,8.1,21.9,N/A,,Overcast,270,2012-10-06 22:06:00
6:54 PM,64.0,53.1,67,29.80,10.0,WNW,10.4,17.3,N/A,,Overcast,290,2012-10-06 22:54:00
7:54 PM,62.1,52.0,70,29.84,10.0,NW,5.8,-,N/A,,Overcast,310,2012-10-06 23:54:00
8:54 PM,60.1,48.9,67,29.87,10.0,WNW,6.9,-,N/A,,Mostly Cloudy,300,2012-10-07 00:54:00
9:54 PM,57.9,46.9,67,29.90,10.0,West,5.8,-,N/A,,Clear,280,2012-10-07 01:54:00
10:54 PM,55.9,46.0,69,29.92,10.0,West,9.2,-,N/A,,Clear,280,2012-10-07 02:54:00
11:54 PM,54.0,43.0,66,29.94,10.0,West,3.5,-,N/A,,Clear,260,2012-10-07 03:54:00